Retour au catalogue

STARLINK-37893

ActifCommunicationsSSO
NORAD 69486·PAYLOAD·🇺🇸 United States

Lancé Jun 11, 2026 depuis Vandenberg Space Force Base

Loading…

Prochains Passages (prochaines 24 heures)

TLE

FraisSource: CelesTrak SupGP

Époque: Sep 14, 2026, 23:05 UTC

1 69486C 26131J   26257.96229167  .00043580  00000+0  13529-2 0  2578
2 69486  97.2841 278.8940 0001555  89.4565  67.5824 15.33415733    15

Suivez STARLINK-37893 en temps réel avec AllMySat

Download on the App Store